OpenBCM V1.13 (Linux)

Packet Radio Mailbox

DB0FHN

[JN59NK Nuernberg]

 Login: GUEST





  
LU9DCE > KEP      11.04.19 20:33l 254 Lines 12406 Bytes #999 (0) @ WW
BID : 21256_LU9DCE
Read: DF7EAV GUEST DK3UZ
Subj: TLE 11 04
Path: DB0FHN<DB0BLO<DB0ERF<DB0RES<IR2UBX<IZ3LSV<IW0QNL<JH4XSY<JE7YGF<LU4ECL<
      CT2KCK<KE0GB<GB7YEW<LU9DCE
Sent: 190411/1800Z 21256@LU9DCE.TOR.BA.ARG.SOAM LinBPQ6.0.18

            __    _  _  ___  ____   ___  ____    ____  ____  ____
           (  )  / )( \/ _ \(    \ / __)(  __)  (  _ \(  _ \/ ___)
           / (_/\) \/ (\__  )) D (( (__  ) _)    ) _ ( ) _ (\___ \
           \____/\____/(___/(____/ \___)(____)  (____/(____/(____/
               ESTACION DE PACKET RADIO - BUENOS AIRES (GF05OM)
                   BOLETINES INFORMATIVOS PROGRAMADOS (BIP)
                  SOPORTE TECNICO - HELLOCODELINUX@GMAIL.COM

+----------------------------------------------------------------------------+
OSCAR 7
1  7530U 74089B   19100.91704241 -.00000031 +00000-0 +86626-4 0  9999
2  7530 101.7369 069.3036 0012455 118.7363 306.3757 12.53637453031663
OSCAR 11 (UoSAT 2)
1 14781U 84021B   19100.94966915 +.00000063 +00000-0 +13886-4 0  9995
2 14781 097.6179 128.8945 0008548 175.3201 184.8095 14.83075222867575
OSCAR 19 (LUSAT)
1 20442U 90005G   19101.37808274  .00000006  00000-0  18444-4 0  9998
2 20442  98.6429  43.5149 0011726 356.7265   3.3840 14.32921590526590
EYESAT A
1 22825U 93061C   19100.93245322 -.00000002 +00000-0 +17170-4 0  9992
2 22825 098.8997 088.0148 0008084 192.1427 167.9561 14.30055160331856
ITAMSAT
1 22826U 93061D   19100.95013491 -.00000004 +00000-0 +16228-4 0  9990
2 22826 098.8937 088.0330 0008823 181.2281 178.8881 14.30388407332076
RADIO ROSTO
1 23439U 94085A   19101.13574066 -.00000031  00000-0  31329-3 0  9997
2 23439  64.8164 226.9867 0147742 126.4508 235.0137 11.27568098   326
JAS 2
1 24278U 96046B   19101.22644704 -.00000017  00000-0  16545-4 0  9993
2 24278  98.5270 263.9582 0351180  57.6950 305.7697 13.53090038118549
TECHSAT 1B
1 25397U 98043D   19100.39271171 -.00000001  00000-0  18635-4 0  9991
2 25397  98.6832  41.3986 0000610 175.4023 184.7161 14.23663107 78011
ISS (ZARYA)
1 25544U 98067A   19101.54240817  .00003768  00000-0  67793-4 0  9993
2 25544  51.6436 332.5060 0001731 169.5180 266.6971 15.52528215164901
PCSAT
1 26931U 01043C   19100.91461871 -.00000016 +00000-0 +25744-4 0  9991
2 26931 067.0514 181.1580 0005790 277.6849 082.3594 14.30537768915060
SAUDISAT 1C
1 27607U 02058C   19101.16153397  .00000056  00000-0  28599-4 0  9992
2 27607  64.5540 259.1151 0082406 269.5719  89.5941 14.75534247876921
CUTE-1
1 27844U 03031E   19100.91655060 +.00000046 +00000-0 +40264-4 0  9995
2 27844 098.6864 110.1516 0008987 225.0567 134.9882 14.22169175818473
CUBESAT XI 4
1 27848U 03031J   19100.95950899 +.00000033 +00000-0 +34857-4 0  9998
2 27848 098.6943 110.6784 0008732 237.2787 122.7549 14.21765493818349
MOZHAYETS 4
1 27939U 03042A   19101.35295977  .00000134  00000-0  32570-4 0  9997
2 27939  98.0286 238.5455 0011445 284.7540  75.2403 14.66767876830529
CUBESAT XI 5
1 28895U 05043F   19100.94036793 +.00000160 +00000-0 +39533-4 0  9990
2 28895 097.9476 246.0709 0016307 204.3368 155.7066 14.63646771717197
CUTE-1.7+APD II
1 32785U 08021C   19101.17548841  .00000292  00000-0  37146-4 0  9994
2 32785  97.5498 104.1242 0014379 126.3075 233.9473 14.88276086593492
DELFI C3
1 32789U 08021G   19100.09249532  .00001885  00000-0  13054-3 0  9993
2 32789  97.4724 151.8357 0012248  11.4594 348.6910 15.06780075596487
SEEDS
1 32791U 08021J   19101.17466248  .00000530  00000-0  59168-4 0  9994
2 32791  97.5300 110.0196 0014953 104.7339 255.5538 14.90771527593907
YUBELEINY
1 32953U 08025A   19101.23313996  .00000020  00000-0  75656-4 0  9990
2 32953  82.5069 187.3311 0017841 278.6033  81.3028 12.43088607493803
PRISM (HITOMI)
1 33493U 09002B   19101.33303496  .00000917  00000-0  86004-4 0  9995
2 33493  98.1230  19.6979 0016625  52.7807 307.4927 14.96578083554925
KKS-1 (KISEKI)
1 33499U 09002H   19100.90796719 +.00000119 +00000-0 +25610-4 0  9997
2 33499 098.3544 297.4030 0010403 068.7096 291.5222 14.75421637548653
SWISSCUBE
1 35932U 09051B   19101.09444736  .00000166  00000-0  48571-4 0  9998
2 35932  98.5800 265.0867 0007932  25.0882 335.0699 14.56261656506798
BEESAT
1 35933U 09051C   19101.03298100  .00000134  00000-0  41141-4 0  9996
2 35933  98.5833 266.7475 0006428  39.7785 320.3882 14.56353721506898
ITUPSAT 1
1 35935U 09051E   19101.11988900  .00000090  00000-0  31889-4 0  9990
2 35935  98.5944 267.0794 0008656  33.6528 326.5217 14.55516640506669
XIWANG-1 (HOPE-1)
1 36122U 09072B   19100.72348457 -.00000029 +00000-0 +34329-4 0  9990
2 36122 100.0733 106.3461 0007642 137.7840 222.3854 13.16349227447807
TISAT 1
1 36799U 10035E   19101.16643460  .00000630  00000-0  69737-4 0  9990
2 36799  98.1453 251.0870 0011223 315.0266  45.0041 14.91048575474554
JUGNU
1 37839U 11058B   19100.17283667  .00000311  00000-0  23936-4 0  9998
2 37839  19.9623  36.3435 0018797 280.5718 213.0394 14.12646666387416
SRMSAT
1 37841U 11058D   19101.17485588  .00000288  00000-0  13139-4 0  9995
2 37841  19.9718  85.6234 0011937 163.1427 287.8680 14.10628405387001
M-CUBED/EXP-1 PRIME
1 37855U 11061F   19100.80613109 +.00001517 +00000-0 +83960-4 0  9990
2 37855 101.7247 321.0156 0173946 280.9985 077.1704 15.05254818405948
HORYU 2
1 38340U 12025D   19100.88918921 +.00000185 +00000-0 +35041-4 0  9996
2 38340 098.3372 137.3865 0011079 350.2736 009.8256 14.75689686360604
STRAND 1
1 39090U 13009E   19101.17921356  .00000017  00000-0  21011-4 0  9997
2 39090  98.4956 308.2599 0010066 127.9539 232.2557 14.35077511320565
SOMP
1 39134U 13015E   19101.39779247  .00002331  00000-0  11642-3 0  9996
2 39134  64.8640 241.6642 0024585 315.9722  43.9447 15.19973811330213
BEESAT 3
1 39135U 13015F   19101.19931547  .00001474  00000-0  83320-4 0  9998
2 39135  64.8659 259.6617 0011418 313.7020  46.3159 15.17311744329857
BEESAT 2
1 39136U 13015G   19100.41974222 +.00001223 +00000-0 +71897-4 0  9998
2 39136 064.8676 265.7851 0012451 306.9058 053.0926 15.16750144329271
CUBEBUG 1
1 39153U 13018D   19101.43638034  .00000256  00000-0  40292-4 0  9991
2 39153  97.9743 199.9636 0018162  62.5289 297.7767 14.80537965321723
ZACUBE
1 39417U 13066B   19101.20004674  .00000247  00000-0  37488-4 0  9992
2 39417  97.5670 118.5365 0057424 258.2200 101.2569 14.81081443290908
TRITON 1
1 39427U 13066M   19100.94530465 +.00000335 +00000-0 +61120-4 0  9993
2 39427 097.6707 082.5948 0114614 026.3098 334.3867 14.67806375288069
GOMX 1
1 39430U 13066Q   19101.32720977  .00000236  00000-0  51149-4 0  9999
2 39430  97.7397  62.4143 0152532 109.5161 252.2596 14.59218139286633
HUMSAT D
1 39433U 13066T   19101.34820811  .00000763  00000-0  79737-4 0  9990
2 39433  97.5621 151.6178 0031339 165.9908 194.2188 14.92128504292888
CUBEBUG 2
1 39440U 13066AA  19100.93432146 +.00000271 +00000-0 +44777-4 0  9992
2 39440 097.6023 103.4334 0079069 309.0842 050.3354 14.75820487288637
FUNCUBE 1
1 39444U 13066AE  19101.03569337  .00000291  00000-0  42234-4 0  9999
2 39444  97.5655 120.2578 0056594 252.7718 106.7296 14.81892540289764
UWE-3
1 39446U 13066AG  19100.92083570 +.00000235 +00000-0 +37999-4 0  9998
2 39446 097.5834 110.3552 0068511 284.8093 074.5536 14.78354711288511
SPROUT
1 39770U 14029E   19101.34495776  .00000983  00000-0  11519-3 0  9999
2 39770  97.8791 205.1121 0007671 316.0361  44.0241 14.87249984264678
UNISAT 6
1 40012U 14033C   19100.50017680  .00000188  00000-0  35498-4 0  9996
2 40012  97.7679 330.0508 0057532 322.3039  37.4144 14.73947742258496
DUCHIFAT 1
1 40021U 14033M   19101.34163970  .00000626  00000-0  69825-4 0  9991
2 40021  97.9228  25.7175 0011489 277.3005  82.6907 14.90570682261362
QB50P1
1 40025U 14033R   19100.54732332  .00000320  00000-0  40116-4 0  9993
2 40025  97.9064  20.3433 0011082 289.9388  70.0634 14.88899339261036
CHUBUSAT 1
1 40300U 14070C   19101.21553240  .00000827  00000-0  39153-4 0  9995
2 40300  97.3322 177.1173 0018284 299.3424 119.1975 15.21985714245601
NUDT-PHONESAT
1 40900U 15049B   19101.30262825  .00002810  00000-0  12406-3 0  9999
2 40900  97.4398 111.3165 0014848  68.9180  52.1186 15.22490203197255
ZDPS 2A
1 40901U 15049C   19101.37397169  .00000964  00000-0  51210-4 0  9992
2 40901  97.4611 108.1881 0015476  81.6962  29.0059 15.17596750196878
ZDPS 2B
1 40902U 15049D   19101.38919438  .00001204  00000-0  63505-4 0  9991
2 40902  97.4550 105.7954 0015538  79.4307  26.9657 15.17372751196853
XW-2A
1 40903U 15049E   19101.37413900  .00002779  00000-0  67962-4 0  9993
2 40903  97.3459 143.7295 0015000  38.8250  83.1169 15.41577737199721
KAITUO 1A
1 40904U 15049F   19101.31545351  .00000691  00000-0  40096-4 0  9994
2 40904  97.4670 104.4993 0016558  85.3087 332.4193 15.15296141196644
OBJECT G
1 40905U 15049G   19101.35661800  .00000317  00000-0  20863-4 0  9992
2 40905  97.4703 102.1769 0017651  79.6133  27.4623 15.14226024196530
XW-2C
1 40906U 15049H   19101.40556623  .00001142  00000-0  63461-4 0  9993
2 40906  97.4678 104.6207 0016700  77.4316  32.9422 15.15580255196650
XW-2D
1 40907U 15049J   19101.26190760  .00001102  00000-0  61075-4 0  9999
2 40907  97.4656 104.1577 0016074  75.1992  48.6421 15.15759934196645
LILACSAT 2
1 40908U 15049K   19101.45453743  .00000270  00000-0  18542-4 0  9990
2 40908  97.4785 103.3029 0017949  78.7179  77.6266 15.13742373196488
XW-2F
1 40910U 15049M   19101.42234756  .00001519  00000-0  79700-4 0  9991
2 40910  97.4631 106.1688 0016609  69.3937  71.3713 15.17142569196666
XW-2B
1 40911U 15049N   19101.42531507  .00000918  00000-0  51587-4 0  9991
2 40911  97.4677 104.9487 0016007  76.1193  57.5352 15.15691130196567
KAITUO 1B
1 40912U 15049P   19101.22517321  .00001632  00000-0  80015-4 0  9990
2 40912  97.4514 109.4699 0016586  55.6069  73.0740 15.19433620196914
TIANWANG 1C (TW-1C)
1 40926U 15051B   19101.30467008  .00014930  00000-0  23031-3 0  9992
2 40926  97.1443 147.6037 0006557 262.3939 159.8033 15.54220291199533
